Doha, Qatar

7:14 PM +03 on September 24, 2017 (GMT +0300)
Doha International

Weather History for OTBD - February, 2014

Change the Weather History Date:

Sunday, February 9, 2014

  Actual Average Record
Temperature  
Mean Temperature 63 °F -  
Max Temperature 68 °F 75 °F 86 °F (2006)
Min Temperature 58 °F 58 °F 51 °F (2000)
Degree Days  
Heating Degree Days 2    
Growing Degree Days 13 (Base 50)    
Moisture  
Dew Point 50 °F    
Average Humidity 64    
Maximum Humidity 94    
Minimum Humidity 37    
Precipitation  
Precipitation 0.00 in 0.02 in - ()
Sea Level Pressure  
Sea Level Pressure 30.11 in    
Wind  
Wind Speed 9 mph ()    
Max Wind Speed 17 mph    
Max Gust Speed -    
Visibility 5.8 miles    
Events Rain    
Averages and records for this station are not official NWS values.
T = Trace of Precipitation, MM = Missing Value Source: Averaged Metar Reports

Daily Weather History Graph

Daily Weather History Graph

Search for Another Location

Airport or City:

Trip Planner

Search our weather history database for the weather conditions in past years. The results will help you decide how hot, cold, wet, or windy it might be!

Date:

Astronomy

Feb. 09, 2014 Rise Set
Actual Time 6:12 AM +03 5:23 PM +03
Civil Twilight 5:48 AM +03 5:47 PM +03
Nautical Twilight 5:21 AM +03 6:14 PM +03
Astronomical Twilight 4:54 AM +03 6:41 PM +03
Moon 12:55 PM +03 (2/9) 1:48 AM +03 (2/9)
Length of Visible Light 11h 58m
Length of Day
11h 11m
Waxing Gibbous, 74% of the Moon is Illuminated
Feb 9
Waxing Gibbous
Feb 15
Full
Feb 22
Last Quarter
Mar 1
New
Mar 8
First Quarter

Hourly Weather History & Observations

Time (+03) Temp. Dew Point Humidity Pressure Visibility Wind Dir Wind Speed Gust Speed Precip Events Conditions
12:00 AM 63 °F 54 °F 66% 30.07 in 7 mi NNW 11.5 mph - - Rain Light Rain
12:00 AM 62.6 °F 55.4 °F 77% 30.06 in 6.2 mi NNW 11.5 mph - N/A   Mostly Cloudy
12:30 AM 62.6 °F 55.4 °F 77% 30.06 in 6.2 mi NNW 11.5 mph - N/A Rain Light Rain
1:00 AM 60.8 °F 55.4 °F 82% 30.06 in 5.0 mi NW 9.2 mph - N/A Rain Light Rain
1:30 AM 59.0 °F 57.2 °F 94% 30.06 in 5.0 mi NW 12.7 mph - N/A Rain Light Rain
2:00 AM 59.0 °F 55.4 °F 88% 30.06 in 5.0 mi NNW 8.1 mph - N/A Rain Light Rain
2:30 AM 59.0 °F 53.6 °F 82% 30.06 in 5.6 mi NW 5.8 mph - N/A Rain Light Rain
3:00 AM 60 °F 54 °F 76% 30.07 in 6 mi NW 3.5 mph - - Rain Light Rain
3:00 AM 59.0 °F 53.6 °F 82% 30.06 in 6.2 mi NW 3.5 mph - N/A Rain Light Rain
3:30 AM 60.8 °F 53.6 °F 77% 30.06 in 6.2 mi WNW 4.6 mph - N/A   Mostly Cloudy
4:00 AM 60.8 °F 53.6 °F 77% 30.06 in 6.2 mi NW 5.8 mph - N/A   Mostly Cloudy
4:30 AM 60.8 °F 53.6 °F 77% 30.06 in 6.2 mi NNW 8.1 mph - N/A   Mostly Cloudy
5:00 AM 60.8 °F 53.6 °F 77% 30.06 in - NW 6.9 mph - N/A   Clear
5:30 AM 60.8 °F 53.6 °F 77% 30.09 in - NW 8.1 mph - N/A   Clear
6:00 AM 61 °F 51 °F 61% 30.11 in 6 mi WNW 6.9 mph - -   Overcast
6:00 AM 60.8 °F 51.8 °F 72% 30.09 in 6.2 mi WNW 6.9 mph - N/A   Mostly Cloudy
6:30 AM 60.8 °F 51.8 °F 72% 30.12 in 6.2 mi WNW 10.4 mph - N/A   Mostly Cloudy
7:00 AM 60.8 °F 51.8 °F 72% 30.12 in 6.2 mi NW 8.1 mph - N/A   Overcast
7:30 AM 60.8 °F 51.8 °F 72% 30.15 in 6.2 mi NW 10.4 mph - N/A Rain Rain
8:00 AM 60.8 °F 53.6 °F 77% 30.15 in 5.0 mi WNW 10.4 mph - N/A Rain Light Rain
8:30 AM 60.8 °F 53.6 °F 77% 30.15 in 4.3 mi WNW 8.1 mph - N/A   Scattered Clouds
9:00 AM 61 °F 53 °F 67% 30.19 in 4 mi NW 8.1 mph - -   Haze
9:00 AM 60.8 °F 53.6 °F 77% 30.18 in 4.3 mi NW 8.1 mph - N/A   Overcast
9:30 AM 60.8 °F 51.8 °F 72% 30.18 in 4.3 mi NW 11.5 mph - N/A Rain Light Rain
10:00 AM 60.8 °F 51.8 °F 72% 30.18 in 4.3 mi WNW 6.9 mph - N/A   Overcast
10:30 AM 60.8 °F 51.8 °F 72% 30.15 in 4.3 mi NW 9.2 mph - N/A Rain Light Rain
11:00 AM 60.8 °F 51.8 °F 72% 30.15 in 4.3 mi WNW 12.7 mph - N/A   Mostly Cloudy
11:30 AM 62.6 °F 51.8 °F 68% 30.15 in 4.3 mi NW 10.4 mph - N/A   Mostly Cloudy
12:00 PM 64 °F 52 °F 55% 30.13 in 6 mi NNW 12.7 mph - -   Haze
12:00 PM 64.4 °F 51.8 °F 64% 30.12 in 5.6 mi NNW 12.7 mph - N/A   Mostly Cloudy
12:30 PM 66.2 °F 50.0 °F 56% 30.09 in 6.2 mi North 12.7 mph - N/A   Mostly Cloudy
1:00 PM 66.2 °F 48.2 °F 52% 30.09 in - NNW 13.8 mph - N/A   Clear
1:30 PM 68.0 °F 48.2 °F 49% 30.06 in - NNW 12.7 mph - N/A   Clear
2:00 PM 68.0 °F 48.2 °F 49% 30.06 in - NNW 13.8 mph - N/A   Clear
2:30 PM 68.0 °F 46.4 °F 46% 30.06 in - NNW 12.7 mph - N/A   Clear
3:00 PM 68 °F 47 °F 37% 30.09 in 7 mi NNW 12.7 mph - -   Partly Cloudy
3:00 PM 68.0 °F 48.2 °F 49% 30.06 in - NNW 12.7 mph - N/A   Clear
3:30 PM 68.0 °F 50.0 °F 52% 30.06 in - NNW 12.7 mph - N/A   Clear
4:00 PM 66.2 °F 44.6 °F 46% 30.09 in - NNW 12.7 mph - N/A   Clear
4:30 PM 66.2 °F 44.6 °F 46% 30.09 in - NNW 17.3 mph - N/A   Clear
5:00 PM 66.2 °F 44.6 °F 46% 30.09 in - NW 12.7 mph - N/A   Clear
5:30 PM 64.4 °F 44.6 °F 49% 30.09 in - NNW 12.7 mph - N/A   Clear
6:00 PM 64 °F 46 °F 41% 30.12 in 9 mi NW 10.4 mph - -  
6:00 PM 64.4 °F 46.4 °F 52% 30.09 in - NW 10.4 mph - N/A   Clear
6:30 PM 62.6 °F 46.4 °F 55% 30.12 in - NW 12.7 mph - N/A   Clear
7:00 PM 62.6 °F 46.4 °F 55% 30.12 in - NNW 11.5 mph - N/A   Clear
7:30 PM 60.8 °F 46.4 °F 59% 30.12 in - NNW 12.7 mph - N/A   Clear
8:00 PM 60.8 °F 46.4 °F 59% 30.15 in - NW 12.7 mph - N/A   Clear
8:30 PM 60.8 °F 46.4 °F 59% 30.15 in - NW 10.4 mph - N/A   Clear
9:00 PM 60 °F 46 °F 49% 30.16 in 10 mi NW 9.2 mph - -  
9:00 PM 60.8 °F 46.4 °F 59% 30.15 in - NW 9.2 mph - N/A   Clear
9:30 PM 60.8 °F 46.4 °F 59% 30.15 in - NW 9.2 mph - N/A   Clear
10:00 PM 59.0 °F 46.4 °F 63% 30.15 in - NW 9.2 mph - N/A   Clear
10:30 PM 59.0 °F 46.4 °F 63% 30.15 in - NW 8.1 mph - N/A   Clear
11:00 PM 59.0 °F 46.4 °F 63% 30.12 in - NW 9.2 mph - N/A   Clear
11:30 PM 59.0 °F 46.4 °F 63% 30.12 in - NW 9.2 mph - N/A   Clear